Home > Weather > Preveza > Past weeks

Flag for Greece Past Weather in Preveza, Greece — Yesterday and Last 2 Weeks

Now
72 °F

Passing clouds.


Feels Like: 74 °F
Forecast: 69 / 83 °F
Wind: 6 mph from Northeast

Location: Aktion Airport

Current Time: Aug 28, 2016 at 5:32:30 AM

Latest Report: Aug 28, 2016 at 4:50 AM


Visibility: N/A

Pressure: 30.04 "Hg

Humidity: 73%

Dew Point: 63 °F

Location of PrevezaLocation

Past Weather in Preveza — Graph

°F

Preveza Temperature Yesterday

Maximum temperature yesterday: 90 °F (at 1:50 PM)
Minimum temperature yesterday: 70 °F (at 6:50 AM)
Average temperature yesterday: 80 °F

High & Low Weather Summary for the Past Weeks

 TemperatureHumidityPressure
High93 °F (Aug 25, 2:50 PM)94% (Aug 18, 4:50 AM)30.12 "Hg (Aug 18, 4:50 AM)
Low66 °F (Aug 16, 4:50 AM)21% (Aug 26, 2:20 PM)29.80 "Hg (Aug 18, 4:20 PM)
Average80 °F59%29.92 "Hg
* Reported Aug 13 3:50 AM — Aug 28 3:50 AM, Preveza, Weather by CustomWeather, © 2016

Note: Actual official high and low records may vary slightly from our data, if they occured in-between our weather recording intervals... More about our weather records

Advertising

Preveza Weather History for the Previous 24 Hours

Scroll right to see more
 ConditionsComfort  
Time TempWeatherWind HumidityBarometerVisibility
3:50 AM
Sun, Aug 28
72 °FPassing clouds.8 mph78%30.04 "HgN/A
2:50 AM70 °FPassing clouds.No wind69%30.04 "HgN/A
1:50 AM70 °FPassing clouds.No wind69%30.04 "HgN/A
12:50 AM73 °FPassing clouds.No wind69%30.07 "HgN/A
11:50 PM
Sat, Aug 27
75 °FPassing clouds.3 mph65%30.07 "HgN/A
10:50 PM75 °FPassing clouds.3 mph61%30.07 "HgN/A
9:50 PM77 °FPassing clouds.5 mph57%30.04 "HgN/A
8:50 PM77 °FPassing clouds.5 mph57%30.04 "HgN/A
8:20 PM77 °FPassing clouds.6 mph57%30.04 "HgN/A
7:50 PM79 °FPassing clouds.7 mph54%30.04 "HgN/A
7:20 PM79 °FPassing clouds.8 mph61%30.04 "HgN/A
6:50 PM81 °FPassing clouds.10 mph54%30.04 "HgN/A
6:20 PM82 °FPassing clouds.12 mph51%30.04 "HgN/A
5:50 PM84 °FPassing clouds.13 mph45%30.04 "HgN/A
5:20 PM84 °FPassing clouds.15 mph43%30.04 "HgN/A
4:50 PM84 °FPassing clouds.16 mph45%30.01 "HgN/A
4:20 PM86 °FPassing clouds.16 mph43%30.01 "HgN/A
3:50 PM90 °FPassing clouds.3 mph21%30.01 "HgN/A
3:20 PM90 °FPassing clouds.6 mph22%30.04 "HgN/A
2:50 PM90 °FPassing clouds.7 mph22%30.04 "HgN/A
2:20 PM90 °FPassing clouds.8 mph24%30.04 "HgN/A
1:50 PM90 °FPassing clouds.8 mph24%30.04 "HgN/A
1:20 PM88 °FPassing clouds.9 mph24%30.04 "HgN/A
12:50 PM88 °FPassing clouds.8 mph25%30.07 "HgN/A
12:20 PM86 °FPassing clouds.9 mph27%30.07 "HgN/A
11:50 AM86 °FPassing clouds.8 mph27%30.07 "HgN/A
11:20 AM84 °FPassing clouds.7 mph29%30.07 "HgN/A
10:50 AM84 °FPassing clouds.10 mph29%30.07 "HgN/A
10:20 AM82 °FPassing clouds.9 mph32%30.07 "HgN/A
9:50 AM81 °FPassing clouds.9 mph37%30.07 "HgN/A
9:20 AM81 °FSunny.9 mph37%30.07 "Hg10 mi
8:50 AM79 °FSunny.10 mph39%30.04 "Hg10 mi
8:20 AM79 °FSunny.9 mph39%30.04 "Hg10 mi
7:50 AM77 °FClear.10 mph42%30.04 "Hg10 mi
7:20 AM70 °FClear.6 mph57%30.04 "Hg10 mi
6:50 AM70 °FClear.6 mph57%30.04 "Hg10 mi
6:20 AM72 °FPassing clouds.9 mph57%30.04 "HgN/A
5:50 AM72 °FPassing clouds.9 mph57%30.04 "HgN/A
Weather by CustomWeather, © 2016

See weather overviewHow to use our weather pages